Change the Weather History Date:

Tuesday, August 6, 2013

  Actual Average Record
Temperature  
Mean Temperature 73 °F 74 °F  
Max Temperature 79 °F 84 °F 93 °F (1980)
Min Temperature 66 °F 65 °F 51 °F (1957)
Degree Days  
Heating Degree Days 0    
Month to date heating degree days 0  
Since 1 June heating degree days 0  
Since 1 July heating degree days 0  
Cooling Degree Days 8    
Month to date cooling degree days 41  
Year to date cooling degree days 553  
Since 1 June cooling degree days 473  
Growing Degree Days 22 (Base 50)    
Moisture  
Dew Point 68 °F    
Average Humidity 82    
Maximum Humidity 90    
Minimum Humidity 73    
Precipitation  
Precipitation 0.18 in 0.15 in 2.40 in (1987)
Month to date precipitation 0.18 0.88  
Year to date precipitation 43.44 35.01  
Sea Level Pressure  
Sea Level Pressure 30.01 in    
Wind  
Wind Speed 1 mph (SW)    
Max Wind Speed 9 mph    
Max Gust Speed 15 mph    
Visibility 8 miles    
Events Rain , Thunderstorm    
T = Trace of Precipitation, MM = Missing Value Source: NWS Daily Summary

Daily Weather History Graph

Daily Weather History Graph

Search for Another Location

Airport or City:

Trip Planner

Search our weather history database for the weather conditions in past years. The results will help you decide how hot, cold, wet, or windy it might be!

Date:

Astronomy

Aug. 06, 2013 Rise Set
Actual Time 5:51 AM CDT 7:39 PM CDT
Civil Twilight 5:24 AM CDT 8:07 PM CDT
Nautical Twilight 4:50 AM CDT 8:41 PM CDT
Astronomical Twilight 4:14 AM CDT 9:16 PM CDT
Moon 5:40 AM CDT (8/6) 7:17 PM CDT (8/6)
Length of Visible Light 14h 43m
Length of Day
13h 48m
Waning Crescent, 0% of the Moon is Illuminated
Aug 6
Waning Crescent
Aug 6
New
Aug 14
First Quarter
Aug 20
Full
Aug 28
Last Quarter

Hourly Weather History & Observations

Time (CDT) Temp. Dew Point Humidity Pressure Visibility Wind Dir Wind Speed Gust Speed Precip Events Conditions
12:53 AM 69.1 °F 64.9 °F 87% 29.99 in 10.0 mi Calm Calm - N/A   Overcast
1:53 AM 69.1 °F 63.0 °F 81% 29.97 in 10.0 mi Calm Calm - N/A   Overcast
2:53 AM 69.1 °F 60.1 °F 73% 29.97 in 10.0 mi Calm Calm - N/A   Overcast
3:53 AM 69.1 °F 61.0 °F 75% 29.96 in 10.0 mi Calm Calm - N/A   Overcast
4:53 AM 66.9 °F 62.1 °F 84% 29.97 in 10.0 mi Calm Calm - N/A   Overcast
5:53 AM 66.9 °F 62.1 °F 84% 29.99 in 10.0 mi Calm Calm - N/A   Overcast
6:53 AM 69.1 °F 63.0 °F 81% 29.99 in 10.0 mi Calm Calm - N/A   Overcast
7:53 AM 71.1 °F 63.0 °F 75% 30.00 in 10.0 mi Calm Calm - N/A   Scattered Clouds
8:53 AM 73.9 °F 64.9 °F 73% 30.01 in 10.0 mi Calm Calm - N/A   Mostly Cloudy
9:19 AM 75.2 °F 66.2 °F 73% 30.06 in 10.0 mi SW 5.8 mph - N/A   Mostly Cloudy
9:28 AM 75.2 °F 66.2 °F 73% 30.06 in 10.0 mi Variable 3.5 mph - N/A   Mostly Cloudy
9:53 AM 73.0 °F 68.0 °F 84% 30.01 in 4.0 mi Variable 3.5 mph - 0.01 in Rain Light Rain
10:42 AM 75.2 °F 69.8 °F 83% 30.07 in 10.0 mi Variable 4.6 mph - 0.00 in   Overcast
10:51 AM 75.2 °F 69.8 °F 83% 30.07 in 10.0 mi Variable 4.6 mph - 0.00 in   Overcast
10:53 AM 75.9 °F 69.1 °F 79% 30.01 in 10.0 mi SW 3.5 mph - 0.00 in   Overcast
11:53 AM 77.0 °F 69.1 °F 76% 30.01 in 10.0 mi Variable 4.6 mph - N/A   Overcast
12:53 PM 78.1 °F 70.0 °F 76% 30.00 in 10.0 mi Variable 4.6 mph - 0.01 in   Mostly Cloudy
1:53 PM 78.1 °F 70.0 °F 76% 29.99 in 10.0 mi Variable 4.6 mph - N/A   Overcast
2:41 PM 78.8 °F 69.8 °F 74% 30.04 in 10.0 mi SW 4.6 mph - N/A Thunderstorm Scattered Clouds
2:53 PM 78.1 °F 70.0 °F 76% 29.98 in 10.0 mi Calm Calm - N/A Thunderstorm Scattered Clouds
3:07 PM 78.8 °F 69.8 °F 74% 30.04 in 10.0 mi Calm Calm - N/A   Scattered Clouds
3:31 PM 75.2 °F 71.6 °F 89% 30.04 in 1.8 mi WNW 5.8 mph - 0.03 in Rain Heavy Rain
3:40 PM 75.2 °F 71.6 °F 89% 30.04 in 2.0 mi WNW 3.5 mph - 0.05 in Rain , Thunderstorm Light Rain
3:45 PM 75.2 °F 73.4 °F 94% 30.04 in 3.0 mi Calm Calm - 0.05 in Rain , Thunderstorm Light Rain
3:53 PM 75.9 °F 73.0 °F 91% 29.98 in 5.0 mi SSW 3.5 mph - 0.05 in Rain Light Rain
4:06 PM 77.0 °F 71.6 °F 83% 30.04 in 9.0 mi Calm Calm - 0.00 in   Overcast
4:33 PM 75.2 °F 71.6 °F 89% 30.05 in 1.5 mi SSW 8.1 mph - 0.08 in Rain , Thunderstorm Heavy Rain
4:43 PM 73.4 °F 69.8 °F 88% 30.05 in 2.0 mi SSW 5.8 mph - 0.10 in Rain , Thunderstorm Light Rain
4:48 PM 71.6 °F 68.0 °F 88% 30.04 in 5.0 mi SSW 4.6 mph - 0.10 in Rain Light Rain
4:53 PM 72.0 °F 68.0 °F 87% 29.99 in 6.0 mi Variable 3.5 mph - 0.11 in Rain Light Rain
5:53 PM 73.9 °F 68.0 °F 82% 29.97 in 10.0 mi Calm Calm - 0.00 in   Clear
6:53 PM 72.0 °F 68.0 °F 87% 29.99 in 10.0 mi Calm Calm - N/A   Clear
7:53 PM 71.1 °F 68.0 °F 90% 29.99 in 10.0 mi Calm Calm - N/A   Clear
8:53 PM 71.1 °F 66.9 °F 87% 29.98 in 10.0 mi Calm Calm - N/A   Clear
9:53 PM 70.0 °F 66.9 °F 90% 29.99 in 10.0 mi Calm Calm - N/A   Clear
10:53 PM 70.0 °F 66.9 °F 90% 30.00 in 9.0 mi Calm Calm - N/A   Overcast
11:53 PM 71.1 °F 68.0 °F 90% 29.99 in 10.0 mi Calm Calm - N/A   Clear